Weather History for Jonesboro, AR

Change the Weather History Date:

Tuesday, July 23, 2013

  Actual Average Record
Temperature  
Mean Temperature 81 °F 81 °F  
Max Temperature 91 °F 91 °F 113 °F (1901)
Min Temperature 70 °F 71 °F 54 °F (1897)
Degree Days  
Heating Degree Days 0 0  
Month to date heating degree days 0 0  
Since 1 June heating degree days 0 1  
Since 1 July heating degree days 0 0  
Cooling Degree Days 16 16  
Month to date cooling degree days 365 367  
Year to date cooling degree days 1044 963  
Since 1 June cooling degree days 814 750  
Growing Degree Days 30 (Base 50)    
Moisture  
Dew Point 71 °F    
Average Humidity 72    
Maximum Humidity 94    
Minimum Humidity 50    
Precipitation  
Precipitation 1.99 in 0.12 in 1.99 in (2013)
Month to date precipitation 2.53 2.85  
Year to date precipitation 32.87 27.88  
Snow  
Snow 0.00 in 0.00 in - ()
Month to date snowfall 0.0 0.0  
Since 1 June snowfall 0.0 0.0  
Since 1 July snowfall 0.0 0.0  
Snow Depth 0.00 in    
Sea Level Pressure  
Sea Level Pressure 29.90 in    
Wind  
Wind Speed 8 mph (SW)    
Max Wind Speed 28 mph    
Max Gust Speed 35 mph    
Visibility 7 miles    
Events Rain , Thunderstorm    
T = Trace of Precipitation, MM = Missing Value Source: NWS Daily Summary

Daily Weather History Graph

Daily Weather History Graph

Search for Another Location

Airport:

Trip Planner

Search our weather history database for the weather conditions in past years. The results will help you decide how hot, cold, wet, or windy it might be!

Date:

Astronomy

Jul. 23, 2013 Rise Set
Actual Time 6:03 AM CDT 8:14 PM CDT
Civil Twilight 5:34 AM CDT 8:42 PM CDT
Nautical Twilight 4:59 AM CDT 9:18 PM CDT
Astronomical Twilight 4:21 AM CDT 9:56 PM CDT
Moon 8:47 PM CDT (7/23) 7:08 AM CDT (7/23)
Length of Visible Light 15h 08m
Length of Day
14h 10m
Full, 99% of the Moon is Illuminated
Jul 23
Full
Jul 29
Last Quarter
Aug 6
New
Aug 14
First Quarter
Aug 20
Full

Hourly Weather History & Observations

Time (CDT) Temp. Heat Index Dew Point Humidity Pressure Visibility Wind Dir Wind Speed Gust Speed Precip Events Conditions
12:53 AM 77.0 °F - 72.0 °F 84% 29.90 in 10.0 mi SSW 3.5 mph - N/A   Clear
1:53 AM 77.0 °F - 73.0 °F 88% 29.89 in 10.0 mi SSW 3.5 mph - N/A   Overcast
2:53 AM 77.0 °F - 73.0 °F 88% 29.87 in 10.0 mi SW 3.5 mph - N/A   Clear
3:53 AM 75.9 °F - 73.0 °F 91% 29.86 in 10.0 mi SSW 5.8 mph - N/A   Clear
4:14 AM 75.2 °F - 73.4 °F 94% 29.85 in 10.0 mi SW 4.6 mph - N/A Thunderstorm Clear
4:43 AM 77.0 °F - 73.4 °F 89% 29.84 in 1.8 mi SW 23.0 mph 29.9 mph 0.22 in Rain , Thunderstorm Heavy Thunderstorms and Rain
4:51 AM 77.0 °F - 73.4 °F 89% 29.85 in 3.0 mi WSW 17.3 mph 29.9 mph 0.26 in Rain , Thunderstorm Light Thunderstorms and Rain
4:53 AM 77.0 °F - 72.0 °F 84% 29.84 in 5.0 mi WSW 13.8 mph 25.3 mph 0.26 in Rain , Thunderstorm Light Thunderstorms and Rain
5:16 AM 75.2 °F - 69.8 °F 83% 29.87 in 1.8 mi SW 18.4 mph 32.2 mph 0.20 in Rain , Thunderstorm Heavy Thunderstorms and Rain
5:23 AM 75.2 °F - 71.6 °F 89% 29.88 in 3.0 mi SSW 15.0 mph 29.9 mph 0.21 in Rain , Thunderstorm Light Thunderstorms and Rain
5:46 AM 73.4 °F - 69.8 °F 88% 29.89 in 3.0 mi West 20.7 mph 26.5 mph 0.35 in Rain , Thunderstorm Thunderstorms and Rain
5:49 AM 73.4 °F - 69.8 °F 88% 29.89 in 1.8 mi WSW 19.6 mph 26.5 mph 0.43 in Rain , Thunderstorm Heavy Thunderstorms and Rain
5:53 AM 73.0 °F - 69.1 °F 87% 29.87 in 1.2 mi SW 20.7 mph 26.5 mph 0.50 in Rain , Thunderstorm Heavy Thunderstorms and Rain
5:58 AM 73.4 °F - 69.8 °F 88% 29.87 in 2.0 mi SSW 13.8 mph 26.5 mph 0.03 in Rain , Thunderstorm Heavy Thunderstorms and Rain
6:07 AM 73.4 °F - 69.8 °F 88% 29.87 in 9.0 mi WSW 17.3 mph 27.6 mph 0.03 in Rain , Thunderstorm Light Thunderstorms and Rain
6:53 AM 72.0 °F - 68.0 °F 87% 29.88 in 2.5 mi SSW 15.0 mph - 0.49 in Rain , Thunderstorm Heavy Thunderstorms and Rain
7:02 AM 71.6 °F - 69.8 °F 94% 29.89 in 9.0 mi South 9.2 mph 20.7 mph 0.00 in Rain , Thunderstorm Light Thunderstorms and Rain
7:16 AM 71.6 °F - 68.0 °F 88% 29.90 in 10.0 mi SSW 18.4 mph - 0.00 in Rain , Thunderstorm Light Rain
7:41 AM 71.6 °F - 69.8 °F 94% 30.01 in 1.8 mi NNE 25.3 mph 34.5 mph 0.22 in Rain , Thunderstorm Heavy Thunderstorms and Rain
7:51 AM 71.6 °F - 69.8 °F 94% 30.00 in 1.0 mi NNE 17.3 mph 28.8 mph 0.38 in Rain , Thunderstorm Heavy Thunderstorms and Rain
7:53 AM 71.1 °F - 70.0 °F 96% 29.99 in 1.0 mi NNE 13.8 mph 25.3 mph 0.43 in Rain , Thunderstorm Heavy Thunderstorms and Rain
7:55 AM 71.6 °F - 69.8 °F 94% 30.00 in 0.8 mi NNE 12.7 mph 21.9 mph 0.05 in Rain , Thunderstorm Heavy Thunderstorms and Rain
8:05 AM 69.8 °F - 69.8 °F 100% 30.02 in 1.8 mi North 16.1 mph 26.5 mph 0.11 in Rain , Thunderstorm Heavy Thunderstorms and Rain
8:11 AM 69.8 °F - 69.8 °F 100% 30.03 in 2.5 mi NNW 12.7 mph 25.3 mph 0.13 in Rain , Thunderstorm Thunderstorms and Rain
8:26 AM 69.8 °F - 69.8 °F 100% 30.00 in 1.5 mi Variable 3.5 mph - 0.24 in Rain , Thunderstorm Rain
8:31 AM 69.8 °F - 66.2 °F 88% 29.99 in 3.0 mi ESE 5.8 mph - 0.25 in Rain , Thunderstorm Light Rain
8:44 AM 69.8 °F - 66.2 °F 88% 29.98 in 10.0 mi East 5.8 mph - 0.25 in Rain , Thunderstorm Light Rain
8:53 AM 70.0 °F - 68.0 °F 93% 29.96 in 10.0 mi East 4.6 mph - 0.26 in Rain , Thunderstorm Light Rain
9:23 AM 71.6 °F - 68.0 °F 88% 29.93 in 10.0 mi East 5.8 mph - 0.02 in Rain Light Rain
9:53 AM 72.0 °F - 69.1 °F 91% 29.94 in 10.0 mi South 9.2 mph - 0.02 in   Partly Cloudy
10:53 AM 73.9 °F - 70.0 °F 87% 29.91 in 10.0 mi SW 6.9 mph - N/A   Mostly Cloudy
11:53 AM 77.0 °F - 70.0 °F 79% 29.90 in 10.0 mi East 4.6 mph - N/A   Mostly Cloudy
12:53 PM 82.9 °F 88.8 °F 73.0 °F 72% 29.88 in 10.0 mi WSW 8.1 mph - N/A   Scattered Clouds
1:53 PM 86.0 °F 92.2 °F 72.0 °F 63% 29.86 in 10.0 mi SW 8.1 mph - N/A   Clear
2:53 PM 89.1 °F 92.9 °F 68.0 °F 50% 29.85 in 10.0 mi SW 9.2 mph - N/A   Clear
3:53 PM 91.0 °F 100.4 °F 73.9 °F 57% 29.82 in 10.0 mi SW 9.2 mph - N/A   Clear
4:53 PM 87.1 °F 96.3 °F 75.0 °F 67% 29.83 in 10.0 mi West 10.4 mph - N/A   Clear
5:53 PM 86.0 °F 96.9 °F 77.0 °F 74% 29.81 in 10.0 mi SW 10.4 mph - N/A   Clear
6:34 PM 84.2 °F 94.1 °F 77.0 °F 79% 29.84 in 10.0 mi WSW 10.4 mph - N/A Thunderstorm Overcast
6:53 PM 84.0 °F 93.7 °F 77.0 °F 79% 29.84 in 10.0 mi SW 11.5 mph - 0.01 in Rain , Thunderstorm Light Rain
6:59 PM 82.4 °F 90.9 °F 77.0 °F 84% 29.85 in 10.0 mi WSW 9.2 mph - 0.00 in Rain , Thunderstorm Light Rain
7:32 PM 80.6 °F 86.2 °F 75.2 °F 84% 29.89 in 10.0 mi West 15.0 mph 20.7 mph 0.01 in Rain Light Rain
7:53 PM 79.0 °F - 72.0 °F 79% 29.87 in 10.0 mi WNW 9.2 mph - 0.02 in Rain Light Rain
8:53 PM 77.0 °F - 70.0 °F 79% 29.85 in 10.0 mi NNE 11.5 mph - 0.00 in   Partly Cloudy
9:53 PM 75.0 °F - 70.0 °F 84% 29.85 in 10.0 mi Calm Calm - N/A   Clear
10:53 PM 73.0 °F - 69.1 °F 87% 29.85 in 10.0 mi SSW 3.5 mph - N/A   Clear
11:53 PM 72.0 °F - 70.0 °F 93% 29.87 in 10.0 mi Calm Calm - N/A   Clear